Location: Unspecified
(0.0000°N, 0.0000°E)
Time: 14:06:47
(UTC+00:00)

N. Korean satellite - Visible Passes

Search period start: 01 August 2021 00:00
Search period end: 11 August 2021 00:00
Orbit: 451 x 498 km, 97.2° (Epoch: 31 July)

Date Brightness Start Highest point End Pass type
(mag) Time Alt. Az. Time Alt. Az. Time Alt. Az.
01 Aug 9.5 04:12:59 10° ENE 04:14:51 14° E 04:16:42 10° SE visible
02 Aug 7.1 05:17:16 10° NNW 05:20:26 35° W 05:23:35 10° SSW visible
03 Aug 6.7 04:49:37 10° NNE 04:53:01 66° E 04:56:21 10° S visible
04 Aug 8.9 04:22:58 10° NE 04:25:36 21° E 04:28:13 10° SSE visible
05 Aug 7.7 05:28:24 10° NNW 05:31:09 23° WNW 05:33:55 10° SW visible
06 Aug 6.3 05:00:20 10° N 05:03:43 75° WNW 05:07:07 10° SSW visible
07 Aug 8.2 04:33:14 10° NE 04:36:17 31° E 04:39:21 10° SSE visible
08 Aug 9.7 04:07:51 10° E 04:08:52 11° ESE 04:09:52 10° ESE visible
08 Aug 8.2 05:39:47 10° NW 05:41:51 15° W 05:43:55 10° WSW visible
09 Aug 6.7 05:11:08 10° N 05:14:25 45° W 05:17:40 10° SSW visible
10 Aug 7.2 04:43:40 10° NNE 04:46:57 50° E 04:50:15 10° S visible
